Flag for Germany Weather past 2 weeks in Witten, North Rhine-Westphalia, Germany

Now
59 °F

Passing clouds.


Feels Like: 56 °F
Forecast: 49 / 62 °F
Wind: 14 mph from Southwest

Location: Dortmund / Wickede

Current Time: May 28, 2015 at 10:16:07 AM

Latest Report: May 28, 2015 at 9:50 AM


Visibility: N/A

Pressure: 29.92 "Hg

Humidity: 55%

Dew point: 43 °F

Location of WittenLocation

Historic Weather in Witten — Graph

°F

Witten temperature yesterday

Maximum temperature yesterday: 61 °F (at 5:50 PM)
Minimum temperature yesterday: 45 °F (at 5:20 AM)
Average temperature yesterday: 55 °F

Past Weeks' High & Low Weather Summary

 TemperatureHumidityPressure
High68 °F (May 22, 3:50 PM)94% (May 25, 11:50 AM)30.33 "Hg (May 25, 11:50 AM)
Low39 °F (May 14, 5:20 AM)32% (May 13, 3:50 PM)29.62 "Hg (May 18, 7:20 PM)
Average55 °F60%30.05 "Hg
* Reported May 13 8:20 AM — May 28 8:50 AM, Witten, Weather by CustomWeather, © 2015

Note: Actual official high and low records may vary slightly from our data, if they occured in-between our weather recording intervals... More about our weather records

Advertising

Witten weather history for previous 24 hours

 ConditionsComfort  
Time TempWeatherWind HumidityBarometerVisibility
8:50 AM
Thu, May 28
57 °FSunny.15 mph59%29.95 "Hg10 mi
8:20 AM57 °FPassing clouds.14 mph55%29.95 "HgN/A
7:50 AM55 °FSunny.14 mph59%29.95 "Hg10 mi
7:20 AM54 °FSunny.15 mph58%29.95 "Hg10 mi
6:50 AM54 °FPassing clouds.13 mph58%29.95 "HgN/A
6:20 AM54 °FPassing clouds.16 mph58%29.95 "HgN/A
5:50 AM54 °FClear.14 mph58%29.95 "Hg10 mi
5:20 AM54 °FClear.14 mph58%29.95 "Hg10 mi
10:50 PM
Wed, May 27
54 °FClear.8 mph54%30.07 "Hg10 mi
10:20 PM54 °FSunny.9 mph54%30.09 "Hg10 mi
9:50 PM54 °FSunny.8 mph54%30.09 "Hg10 mi
9:20 PM54 °FSunny.8 mph54%30.09 "Hg10 mi
8:50 PM55 °FRefreshingly cool.7 mph55%30.09 "HgN/A
8:20 PM59 °FSunny.8 mph45%30.12 "Hg10 mi
7:50 PM59 °FSunny.8 mph45%30.12 "Hg10 mi
7:20 PM61 °FSunny.8 mph42%30.12 "Hg10 mi
6:50 PM61 °FSunny.8 mph45%30.12 "Hg10 mi
6:20 PM61 °FSunny.9 mph42%30.15 "Hg10 mi
5:50 PM61 °FSunny.10 mph45%30.15 "Hg10 mi
5:20 PM59 °FPassing clouds.8 mph45%30.18 "HgN/A
4:50 PM59 °FSunny.8 mph45%30.18 "Hg10 mi
4:20 PM59 °FSunny.6 mph45%30.18 "Hg10 mi
3:50 PM59 °FSunny.7 mph45%30.18 "Hg10 mi
3:20 PM59 °FSunny.7 mph45%30.18 "Hg10 mi
2:50 PM59 °FSunny.5 mph42%30.21 "Hg10 mi
2:20 PM57 °FPassing clouds.5 mph48%30.21 "HgN/A
1:50 PM57 °FPassing clouds.7 mph48%30.21 "HgN/A
1:20 PM59 °FSunny.5 mph42%30.21 "Hg10 mi
12:50 PM57 °FSunny.5 mph44%30.24 "Hg10 mi
12:20 PM55 °FScattered clouds.5 mph47%30.24 "HgN/A
11:50 AM55 °FPartly sunny.5 mph44%30.24 "HgN/A
11:20 AM55 °FScattered clouds.8 mph47%30.24 "HgN/A
10:50 AM55 °FScattered clouds.9 mph51%30.24 "HgN/A
10:20 AM54 °FScattered clouds.7 mph58%30.24 "HgN/A
Weather by CustomWeather, © 2015

See weather overviewHow to use our weather pages